DFMGH EDDN-EDMO

Flight info

Callsign DFMGH
Flight time 0h 31m
Altitude 12000
Route BOLSI1G/28 BOLSI DCT AKANU DCT DODIL/N0280F190 Y161 MAH
Aircraft PC12/L-SDFGRWY/S

Departure

Time 2026-04-27 19:41
Airport Nuremberg Airport (EDDN)

Arrival

Time 2026-04-27 20:12
Airport Oberpfaffenhofen Airport (EDMO)
Time Latitude Longitude Altitude Speed Heading
2026-04-27 19:26 49.49560 11.06995 1017 ft 0 kts
2026-04-27 19:34 49.49562 11.06996 1018 ft 2 kts
2026-04-27 19:34 49.49564 11.06996 1018 ft 0 kts
2026-04-27 19:36 49.49565 11.06996 1019 ft 2 kts
2026-04-27 19:36 49.49594 11.07033 1022 ft 7 kts 89°
2026-04-27 19:37 49.49585 11.07138 1022 ft 10 kts 99°
2026-04-27 19:37 49.49625 11.07222 1021 ft 11 kts 42°
2026-04-27 19:37 49.49624 11.07381 1022 ft 20 kts 98°
2026-04-27 19:37 49.49603 11.07600 1022 ft 20 kts 98°
2026-04-27 19:38 49.49585 11.07781 1023 ft 19 kts 98°
2026-04-27 19:38 49.49562 11.08009 1024 ft 22 kts 98°
2026-04-27 19:38 49.49539 11.08251 1025 ft 17 kts 97°
2026-04-27 19:38 49.49566 11.08351 1027 ft 12 kts 13°
2026-04-27 19:39 49.49615 11.08387 1030 ft 8 kts 47°
2026-04-27 19:39 49.49652 11.08464 1031 ft 9 kts 53°
2026-04-27 19:39 49.49681 11.08523 1032 ft 8 kts 53°
2026-04-27 19:39 49.49753 11.08576 1033 ft 13 kts
2026-04-27 19:40 49.49800 11.08521 1033 ft 7 kts 278°
2026-04-27 19:40 49.49808 11.08435 1032 ft 20 kts 281°
2026-04-27 19:40 49.49856 11.07936 1026 ft 74 kts 278°
2026-04-27 19:40 49.49956 11.06948 1068 ft 107 kts 278°
2026-04-27 19:41 49.50050 11.05685 1279 ft 130 kts 276°
2026-04-27 19:41 49.50165 11.04238 1724 ft 140 kts 281°
2026-04-27 19:41 49.50321 11.02700 2222 ft 149 kts 281°
2026-04-27 19:41 49.50502 11.01122 2833 ft 144 kts 281°
2026-04-27 19:42 49.50662 10.99620 3460 ft 143 kts 278°
2026-04-27 19:42 49.50810 10.98084 3963 ft 151 kts 278°
2026-04-27 19:42 49.50973 10.96457 4598 ft 153 kts 278°
2026-04-27 19:42 49.51131 10.94838 5299 ft 153 kts 277°
2026-04-27 19:43 49.51260 10.93214 5971 ft 153 kts 268°
2026-04-27 19:43 49.50967 10.91668 6647 ft 151 kts 243°
2026-04-27 19:43 49.50509 10.90210 7252 ft 152 kts 245°
2026-04-27 19:43 49.50065 10.88735 7869 ft 153 kts 245°
2026-04-27 19:44 49.49608 10.87247 8484 ft 154 kts 244°
2026-04-27 19:44 49.49149 10.85752 9143 ft 155 kts 245°
2026-04-27 19:44 49.48689 10.84248 9818 ft 156 kts 245°
2026-04-27 19:44 49.48228 10.82759 10430 ft 156 kts 246°
2026-04-27 19:45 49.47760 10.81241 11056 ft 157 kts 246°
2026-04-27 19:45 49.47293 10.79720 11648 ft 158 kts 246°
2026-04-27 19:45 49.46786 10.78177 12090 ft 169 kts 239°
2026-04-27 19:45 49.45843 10.76831 12192 ft 206 kts 213°
2026-04-27 19:46 49.44377 10.76149 12196 ft 236 kts 190°
2026-04-27 19:46 49.42674 10.75953 12193 ft 253 kts 185°
2026-04-27 19:46 49.40882 10.75853 12184 ft 262 kts 185°
2026-04-27 19:46 49.39047 10.75712 12181 ft 266 kts 186°
2026-04-27 19:47 49.37192 10.75537 12176 ft 268 kts 186°
2026-04-27 19:47 49.35323 10.75366 12176 ft 270 kts 186°
2026-04-27 19:47 49.33445 10.75206 12174 ft 270 kts 186°
2026-04-27 19:47 49.31572 10.75044 12183 ft 270 kts 186°
2026-04-27 19:48 49.29688 10.74877 12170 ft 271 kts 186°
2026-04-27 19:48 49.27807 10.74710 12172 ft 271 kts 186°
2026-04-27 19:48 49.25928 10.74547 12168 ft 271 kts 186°
2026-04-27 19:48 49.24047 10.74384 12167 ft 270 kts 186°
2026-04-27 19:49 49.22196 10.74220 12173 ft 270 kts 186°
2026-04-27 19:49 49.20319 10.74059 12170 ft 270 kts 186°
2026-04-27 19:49 49.18441 10.73896 12173 ft 270 kts 186°
2026-04-27 19:49 49.16570 10.73731 12173 ft 270 kts 186°
2026-04-27 19:50 49.14695 10.73568 12172 ft 270 kts 186°
2026-04-27 19:50 49.12819 10.73404 12174 ft 270 kts 186°
2026-04-27 19:50 49.10938 10.73239 12176 ft 270 kts 186°
2026-04-27 19:50 49.09059 10.73077 12179 ft 271 kts 186°
2026-04-27 19:51 49.07177 10.72913 12185 ft 270 kts 186°
2026-04-27 19:51 49.05317 10.72754 12177 ft 266 kts 186°
2026-04-27 19:51 49.03475 10.72596 12183 ft 265 kts 186°
2026-04-27 19:51 49.01620 10.72432 12180 ft 268 kts 186°
2026-04-27 19:52 48.99761 10.72268 12184 ft 267 kts 186°
2026-04-27 19:52 48.98530 10.72163 12183 ft 267 kts 186°
2026-04-27 19:52 48.96043 10.71952 12186 ft 267 kts 186°
2026-04-27 19:52 48.94187 10.71790 12185 ft 267 kts 186°
2026-04-27 19:53 48.90501 10.71471 12181 ft 267 kts 186°
2026-04-27 19:53 48.88642 10.71311 12178 ft 267 kts 186°
2026-04-27 19:53 48.86789 10.71150 12173 ft 267 kts 186°
2026-04-27 19:54 48.84937 10.70992 12177 ft 266 kts 186°
2026-04-27 19:54 48.83090 10.70832 12178 ft 266 kts 186°
2026-04-27 19:54 48.81239 10.70674 12178 ft 267 kts 186°
2026-04-27 19:54 48.79386 10.70512 12175 ft 267 kts 186°
2026-04-27 19:55 48.77524 10.70356 12177 ft 267 kts 186°
2026-04-27 19:55 48.75672 10.70199 12175 ft 267 kts 186°
2026-04-27 19:55 48.73815 10.70039 12170 ft 268 kts 186°
2026-04-27 19:55 48.71959 10.69876 12173 ft 267 kts 186°
2026-04-27 19:56 48.70126 10.69720 12166 ft 267 kts 186°
2026-04-27 19:56 48.68270 10.69599 12144 ft 268 kts 182°
2026-04-27 19:56 48.66409 10.70098 11926 ft 272 kts 164°
2026-04-27 19:56 48.64720 10.71333 11709 ft 269 kts 148°
2026-04-27 19:57 48.63303 10.73196 11512 ft 272 kts 134°
2026-04-27 19:57 48.62004 10.75285 11310 ft 273 kts 134°
2026-04-27 19:57 48.60702 10.77340 11099 ft 269 kts 135°
2026-04-27 19:57 48.59410 10.79376 10903 ft 268 kts 134°
2026-04-27 19:58 48.58125 10.81417 10701 ft 267 kts 134°
2026-04-27 19:58 48.56854 10.83462 10496 ft 267 kts 134°
2026-04-27 19:58 48.55556 10.85547 10030 ft 279 kts 134°
2026-04-27 19:58 48.54210 10.87697 9509 ft 275 kts 134°
2026-04-27 19:59 48.52901 10.89787 9155 ft 269 kts 134°
2026-04-27 19:59 48.51738 10.91649 9119 ft 238 kts 134°
2026-04-27 19:59 48.50597 10.93472 9120 ft 239 kts 134°
2026-04-27 19:59 48.49461 10.95279 9124 ft 235 kts 134°
2026-04-27 20:00 48.48330 10.97065 9133 ft 235 kts 135°
2026-04-27 20:00 48.47192 10.98832 9123 ft 235 kts 135°
2026-04-27 20:00 48.46055 11.00605 9127 ft 235 kts 135°
2026-04-27 20:00 48.44896 11.02418 8824 ft 252 kts 135°
2026-04-27 20:01 48.43700 11.04282 8363 ft 234 kts 134°
2026-04-27 20:01 48.42630 11.05946 7916 ft 210 kts 135°
2026-04-27 20:01 48.41612 11.07524 7600 ft 213 kts 134°
2026-04-27 20:01 48.40596 11.09111 7291 ft 212 kts 135°
2026-04-27 20:02 48.39599 11.10662 6985 ft 203 kts 134°
2026-04-27 20:02 48.38618 11.12186 6702 ft 202 kts 134°
2026-04-27 20:02 48.37641 11.13703 6413 ft 200 kts 134°
2026-04-27 20:02 48.36684 11.15151 6201 ft 196 kts 140°
2026-04-27 20:03 48.35501 11.16002 5977 ft 188 kts 162°
2026-04-27 20:03 48.34252 11.16550 5774 ft 187 kts 164°
2026-04-27 20:03 48.33017 11.17134 5558 ft 185 kts 153°
2026-04-27 20:03 48.32138 11.18518 5382 ft 189 kts 115°
2026-04-27 20:04 48.31603 11.20337 5265 ft 194 kts 118°
2026-04-27 20:04 48.30859 11.22055 5160 ft 198 kts 126°
2026-04-27 20:04 48.30021 11.23707 5061 ft 199 kts 127°
2026-04-27 20:04 48.29468 11.24810 4983 ft 200 kts 126°
2026-04-27 20:05 48.28379 11.27032 4818 ft 200 kts 126°
2026-04-27 20:05 48.27560 11.28721 4705 ft 201 kts 125°
2026-04-27 20:05 48.26718 11.30433 4579 ft 202 kts 126°
2026-04-27 20:05 48.26059 11.32262 4445 ft 195 kts 110°
2026-04-27 20:06 48.25590 11.34164 4307 ft 194 kts 110°
2026-04-27 20:06 48.25108 11.36026 4188 ft 193 kts 110°
2026-04-27 20:06 48.24622 11.37911 4042 ft 195 kts 110°
2026-04-27 20:06 48.24155 11.39730 3990 ft 178 kts 110°
2026-04-27 20:07 48.23706 11.41479 3995 ft 183 kts 110°
2026-04-27 20:07 48.23102 11.43170 3982 ft 183 kts 130°
2026-04-27 20:07 48.22068 11.44255 3987 ft 182 kts 157°
2026-04-27 20:07 48.20817 11.44537 3979 ft 185 kts 184°
2026-04-27 20:08 48.19632 11.43873 3991 ft 175 kts 211°
2026-04-27 20:08 48.18701 11.42747 4007 ft 169 kts 220°
2026-04-27 20:08 48.17814 11.41567 3998 ft 175 kts 221°
2026-04-27 20:08 48.16932 11.40360 3993 ft 167 kts 220°
2026-04-27 20:09 48.16065 11.39178 3847 ft 172 kts 221°
2026-04-27 20:09 48.15224 11.38024 3629 ft 152 kts 220°
2026-04-27 20:09 48.14444 11.36958 3423 ft 151 kts 221°
2026-04-27 20:09 48.13680 11.35898 3229 ft 147 kts 220°
2026-04-27 20:10 48.13186 11.35221 3105 ft 138 kts 220°
2026-04-27 20:10 48.12514 11.34299 2931 ft 129 kts 220°
2026-04-27 20:10 48.11869 11.33417 2765 ft 122 kts 220°
2026-04-27 20:10 48.11247 11.32589 2589 ft 117 kts 221°
2026-04-27 20:11 48.10666 11.31768 2433 ft 112 kts 222°
2026-04-27 20:11 48.10097 11.31003 2293 ft 109 kts 220°
2026-04-27 20:11 48.09547 11.30245 2126 ft 106 kts 221°
2026-04-27 20:11 48.09022 11.29521 1975 ft 99 kts 220°
2026-04-27 20:12 48.08545 11.28867 1927 ft 81 kts 221°
2026-04-27 20:12 48.08227 11.28436 1926 ft 36 kts 222°
2026-04-27 20:12 48.08140 11.28289 1925 ft 10 kts 294°
2026-04-27 20:12 48.08205 11.28180 1922 ft 16 kts 314°
2026-04-27 20:13 48.08280 11.28064 1921 ft 12 kts 319°
2026-04-27 20:13 48.08348 11.28117 1921 ft 17 kts 44°
2026-04-27 20:13 48.08439 11.28245 1921 ft 18 kts 42°
2026-04-27 20:13 48.08550 11.28391 1921 ft 25 kts 41°
2026-04-27 20:14 48.08658 11.28537 1921 ft 15 kts 44°
2026-04-27 20:14 48.08719 11.28533 1921 ft 12 kts 324°
2026-04-27 20:14 48.08788 11.28515 1921 ft 12 kts 43°
2026-04-27 20:14 48.08788 11.28596 1921 ft 4 kts 135°
2026-04-27 20:15 48.08785 11.28601 1921 ft 0 kts 137°